This demonstration page uses our WeatherBlox Daily Observations layout. Learn more.

36.17497, -115.13722

Hourly Observations for June 6, 2020

Temp ( °F °C ) Dew Point ( °F °C ) Humidity (%) Winds ( mph kmh ) Pressure ( in mb ) Visibility ( mi km ) Precip ( " mm )
12:53 am 00:53 Clear 82 27.8 39 3.9 22 22 S 12 19 29.51 999 10 16.0934 0 0
1:53 am 01:53 Clear 80 26.7 41 5 25 25 SSE 16 26 29.52 1000 10 16.0934 0 0
2:53 am 02:53 Clear 78 25.6 41 5 27 27 S 16 26 29.52 1000 10 16.0934 0 0
3:53 am 03:53 Clear 76 24.4 42 5.6 30 30 S 13 20 29.54 1000 10 16.0934 0 0
4:53 am 04:53 Clear 74 23.3 43 6.1 33 33 SSE 9 15 29.56 1001 10 16.0934 0 0
5:53 am 05:53 Sunny 73 22.8 44 6.7 35 35 SSE 22 35 29.58 1002 10 16.0934 0 0
6:53 am 06:53 Sunny 74 23.3 44 6.7 34 34 S 20 31 29.61 1003 10 16.0934 0 0
7:53 am 07:53 Sunny 74 23.3 46 7.8 37 37 SSE 20 31 29.64 1004 10 16.0934 0 0
8:53 am 08:53 Sunny 76 24.4 46 7.8 35 35 SSE 26 43 29.66 1004 10 16.0934 0 0
9:53 am 09:53 Sunny 78 25.6 46 7.8 32 32 S 28 44 29.66 1004 10 16.0934 0 0
10:53 am 10:53 Sunny 81 27.2 46 7.8 29 29 S 23 37 29.67 1005 10 16.0934 0 0
11:53 am 11:53 Sunny 83 28.3 45 7.2 26 26 S 28 44 29.66 1005 10 16.0934 0 0
12:53 pm 12:53 Sunny 83 28.3 45 7.2 26 26 SSW 23 37 29.66 1004 10 16.0934 0 0
1:53 pm 13:53 Sunny 85 29.4 43 6.1 23 23 SSW 18 30 29.64 1004 10 16.0934 0 0
2:53 pm 14:53 Sunny 86 30 43 6.1 22 22 S 17 28 29.65 1004 10 16.0934 0 0
3:53 pm 15:53 Sunny 88 31.1 39 3.9 18 18 SSW 28 44 29.62 1003 10 16.0934 0 0
4:53 pm 16:53 Sunny 87 30.6 37 2.8 17 17 SW 23 37 29.62 1003 10 16.0934 0 0
5:53 pm 17:53 Sunny 86 30 37 2.8 18 18 SSW 25 41 29.61 1003 10 16.0934 0 0
6:53 pm 18:53 Sunny 85 29.4 35 1.7 17 17 SSW 17 28 29.62 1003 10 16.0934 0 0
7:53 pm 19:53 Sunny 81 27.2 34 1.1 18 18 SSW 21 33 29.63 1003 10 16.0934 0 0
8:53 pm 20:53 Clear 79 26.1 33 0.6 19 19 S 14 22 29.65 1004 10 16.0934 0 0
9:53 pm 21:53 Clear 76 24.4 34 1.1 22 22 S 17 28 29.67 1005 10 16.0934 0 0
10:53 pm 22:53 Clear 74 23.3 33 0.6 22 22 S 15 24 29.65 1004 10 16.0934 0 0
11:53 pm 23:53 Clear 73 22.8 34 1.1 24 24 SSE 9 15 29.66 1004 10 16.0934 0 0

Powered by AerisWeather